Wind_Speed
48 47 47 46 45 44 43 41 40 39 38 37 37 37 36 34 35 35 32 31 31 32 31 32 30 30 31 30 30 31 30 25 25 34 30 32 32 31 29 27 30 30 29 26 27
51 50 50 49 49 47 46 45 44 43 41 40 39 39 39 37 39 39 35 33 34 34 35 34 35 34 34 34 33 34 35 30 30 37 35 33 36 33 30 31 30 28 31 30 30
54 54 52 51 51 51 50 49 49 48 46 44 42 41 41 40 42 41 38 37 37 37 38 38 38 37 37 38 38 39 37 35 32 37 41 35 33 37 34 32 30 40 40 36 31
54 57 57 56 54 54 52 52 52 51 50 48 46 44 45 43 43 42 42 40 41 41 41 42 41 42 41 41 40 44 40 41 37 35 38 37 34 37 40 38 34 38 38 43 41
62 59 58 58 59 57 56 55 54 54 53 51 50 48 48 47 42 49 45 45 46 45 45 45 45 46 46 45 46 46 46 45 45 42 42 44 41 43 41 39 42 38 45 46 47
67 67 67 59 59 60 58 57 55 54 55 55 53 52 51 51 49 51 50 49 51 51 49 49 50 50 50 49 49 48 50 47 46 47 47 48 48 53 44 42 44 46 49 51 51
68 69 65 66 64 63 59 62 65 59 55 58 59 56 55 52 55 54 53 52 53 53 53 54 53 56 59 58 56 59 60 59 54 51 53 55 54 55 54 54 54 51 51 53 54
61 67 70 67 65 65 64 64 62 61 69 61 65 64 60 58 58 57 58 56 56 57 56 56 57 58 57 59 60 60 58 55 48 51 54 57 59 55 57 57 56 52 53 56 55
58 61 66 67 67 68 68 68 68 69 67 68 69 70 66 65 65 64 63 63 62 61 60 60 60 59 61 62 63 64 60 58 60 56 56 54 59 56 51 50 50 52 53 48 50
60 59 59 60 60 60 60 58 57 58 57 58 61 58 58 58 61 61 64 64 66 67 69 64 63 68 65 61 62 64 62 62 63 51 48 49 47 48 49 48 43 41 39 40 43
62 61 61 60 57 56 53 54 55 55 53 50 54 50 51 53 52 48 48 46 46 49 48 48 49 48 44 45 46 45 45 50 45 43 45 45 45 44 46 47 48 39 33 33 33
61 59 58 56 59 58 59 59 56 54 54 53 52 52 48 50 49 44 43 40 41 41 41 43 42 42 43 44 44 43 42 42 41 39 38 39 43 43 45 46 43 35 33 30 31
61 62 60 57 55 52 52 49 51 51 56 51 47 46 42 42 42 39 39 38 38 39 42 42 43 45 44 44 44 42 40 38 40 39 38 41 36 39 39 36 33 34 35 28 32
64 61 63 59 57 52 53 53 56 53 56 51 49 47 45 44 41 40 39 38 38 39 40 44 45 44 46 45 43 40 36 38 38 38 37 33 37 33 28 27 34 36 31 32 36
58 67 59 58 54 51 56 48 51 52 54 51 54 58 54 48 43 40 42 42 40 39 40 38 37 38 39 39 40 39 36 35 34 36 37 36 38 32 28 27 39 29 33 32 39
68 65 55 61 57 57 47 44 50 46 46 46 48 48 47 46 46 42 41 45 42 40 39 37 36 39 33 36 39 37 32 28 31 34 38 34 36 34 31 38 44 42 37 39 41
72 69 69 66 55 59 60 62 65 68 54 50 45 37 42 41 43 39 37 38 43 46 40 37 36 30 33 36 35 29 27 31 38 39 34 35 40 39 37 38 40 40 36 37 40
74 71 67 66 62 63 59 60 57 63 56 45 39 41 36 38 35 34 43 47 47 40 40 37 35 35 36 37 39 43 43 49 42 37 38 43 41 39 37 39 41 42 42 38 42
74 74 73 70 66 68 69 60 74 65 63 57 49 47 43 42 47 49 45 46 48 43 43 45 46 48 50 53 50 43 49 36 36 36 38 43 40 41 39 39 42 44 44 48 43
75 77 72 65 67 73 69 55 72 75 71 58 61 58 62 50 53 50 46 45 47 47 45 46 51 54 56 53 50 45 37 37 40 43 42 35 39 44 46 47 51 53 54 52 52
73 76 77 76 77 83 76 67 63 72 70 70 69 63 66 66 54 50 52 52 50 51 55 58 56 50 53 54 50 46 47 47 48 47 47 42 43 44 48 47 45 51 52 49 52
72 72 62 74 76 80 83 84 81 82 83 75 76 67 66 61 63 63 63 62 70 76 66 59 57 53 54 54 55 49 47 49 52 52 50 49 46 47 51 50 45 46 44 47 49
66 65 70 69 72 70 72 81 64 63 72 72 59 57 55 54 54 54 55 63 65 66 68 65 60 56 56 52 51 51 50 52 53 53 52 48 45 47 49 52 53 56 58 59 63
59 54 59 64 62 60 65 64 66 65 62 58 56 63 65 67 68 61 58 66 62 56 62 68 65 61 56 49 50 50 52 54 54 55 55 54 54 48 53 53 52 53 52 52 60
63 64 60 72 70 67 71 71 68 70 64 70 63 61 64 62 59 58 62 55 50 51 53 55 55 57 56 51 48 48 49 52 55 51 52 54 54 50 53 57 56 55 54 55 58
73 64 72 68 68 62 61 61 58 59 64 59 57 54 51 52 52 49 51 51 54 53 56 54 54 54 54 55 53 51 51 54 53 52 53 55 57 53 51 55 57 55 60 61 60
50 48 64 61 44 44 45 47 48 45 53 47 47 49 53 52 53 52 51 52 56 54 53 51 54 55 57 54 53 56 51 45 47 48 48 51 50 49 51 53 57 62 60 58 57
Wind_Direction
242 243 245 246 247 247 247 246 246 245 244 244 244 246 246 247 249 249 249 249 247 250 246 252 252 257 259 265 269 272 275 281 283 281 286 292 294 298 296 290 286 290 296 297 292
244 243 243 244 246 247 249 249 249 250 249 249 248 249 250 250 253 252 250 252 254 251 253 255 257 257 262 265 269 272 276 282 283 287 290 292 294 294 291 286 284 288 291 290 288
246 247 245 246 246 247 247 249 249 249 252 252 253 254 253 253 255 255 257 254 253 255 257 257 260 262 263 266 271 270 272 278 284 289 290 290 290 292 290 285 286 286 286 284 284
245 248 248 248 248 249 250 250 251 251 250 251 252 254 256 256 259 260 260 262 261 259 259 260 263 265 266 270 277 272 278 278 284 291 295 296 286 291 288 291 287 285 284 288 292
247 247 249 249 249 249 250 251 252 254 254 254 254 255 256 257 266 258 261 262 262 264 266 268 268 268 269 274 276 281 279 280 281 284 293 292 289 286 285 286 285 285 289 289 290
248 247 245 241 247 248 250 253 253 256 258 258 257 256 255 259 263 263 263 265 265 265 270 271 272 274 275 278 278 280 282 285 287 287 288 286 286 284 292 284 282 284 284 286 289
245 244 247 250 253 249 254 250 246 253 260 261 261 260 260 261 262 263 265 266 269 270 272 273 274 276 278 279 276 276 276 277 283 284 285 279 278 286 286 283 281 277 277 281 283
242 243 246 246 247 249 250 250 253 252 249 255 258 262 262 265 265 265 265 266 269 268 268 268 270 270 270 271 275 275 275 277 275 277 278 278 283 284 280 278 278 273 276 281 281
245 243 244 246 247 250 252 254 253 252 252 255 257 258 258 260 264 265 268 268 268 270 272 273 273 274 274 275 276 278 277 277 278 279 279 276 281 286 282 278 278 278 280 279 279
244 246 247 248 247 248 250 252 253 253 252 253 255 258 260 260 260 264 265 267 268 268 269 272 273 275 271 275 279 279 274 276 279 278 277 279 280 282 280 280 280 280 287 285 284
244 243 247 247 247 249 251 253 254 256 256 257 257 256 259 259 260 261 262 266 268 268 270 270 271 274 275 272 271 274 277 274 272 271 277 278 276 275 277 280 282 294 281 277 277
242 242 240 245 247 250 250 251 253 256 255 255 256 258 260 260 260 262 263 264 266 269 270 271 274 276 272 272 274 275 274 275 276 275 269 267 273 276 276 278 283 276 276 273 276
240 240 244 248 245 250 254 252 257 256 254 246 253 256 251 259 260 258 259 263 266 271 276 277 279 277 275 275 275 275 275 273 270 266 268 269 273 271 274 282 274 269 272 250 257
239 237 244 246 248 253 248 246 257 251 255 250 256 244 249 254 252 258 261 261 270 278 279 279 279 278 277 276 274 271 268 267 269 271 270 276 273 271 280 277 267 266 265 266 268
225 240 244 245 245 255 242 244 244 249 253 249 257 253 247 254 254 253 256 259 270 274 278 282 278 278 277 277 275 274 270 275 275 276 275 276 282 283 275 264 261 268 274 262 265
235 238 230 239 241 237 239 238 244 239 240 247 257 248 245 251 247 250 258 262 265 273 277 274 278 276 273 267 266 264 266 275 279 276 271 286 290 275 277 268 273 272 266 269 267
235 237 235 238 236 244 251 252 237 241 249 250 247 248 248 247 248 253 253 259 269 278 276 271 270 265 263 263 262 268 270 296 297 299 296 292 291 292 281 276 273 271 267 260 259
230 232 232 235 230 233 231 237 250 235 243 244 242 246 244 246 246 254 268 274 276 265 263 262 266 264 271 274 276 274 277 284 286 289 293 298 296 290 289 285 279 279 276 274 268
229 230 230 231 225 229 238 234 243 248 251 248 251 248 243 243 256 263 266 267 262 256 259 264 267 271 274 276 281 287 283 286 280 278 284 292 278 276 278 275 278 279 275 279 271
228 230 228 224 226 234 233 241 242 248 244 250 254 255 250 248 256 256 262 266 258 255 256 266 274 279 278 280 281 283 286 277 274 283 277 282 276 271 269 267 267 266 266 264 263
226 227 232 233 229 234 240 226 226 234 249 259 261 257 251 254 248 251 260 259 251 256 267 271 273 275 276 276 278 276 278 272 273 272 269 271 265 266 269 268 260 261 269 274 270
227 224 217 232 234 237 241 239 240 246 249 256 256 257 254 244 257 259 261 257 255 259 266 268 265 270 275 275 275 265 265 267 264 267 267 267 261 262 265 270 270 260 260 264 269
226 226 230 231 228 232 241 238 240 249 246 248 247 247 243 243 251 260 259 261 265 265 263 268 268 272 273 265 266 266 264 262 262 262 262 258 259 257 262 262 258 262 264 265 267
207 212 216 220 230 241 235 219 252 231 228 231 238 246 246 250 255 258 255 264 265 261 264 263 269 274 273 264 257 256 263 267 265 265 266 263 264 262 267 264 264 264 267 270 276
216 216 224 222 229 223 225 228 232 226 237 246 246 247 249 250 252 253 256 256 248 249 256 265 266 266 265 261 253 253 256 260 260 260 263 265 266 273 269 272 276 272 264 265 274
204 209 207 211 209 214 217 221 223 223 228 234 242 246 247 246 244 244 247 249 242 245 248 254 256 258 258 259 258 256 262 258 258 265 267 268 271 274 275 270 273 273 276 285 286
198 204 215 206 216 223 231 236 241 248 242 238 239 238 241 242 240 243 248 246 246 247 252 255 252 254 255 256 257 259 264 267 265 266 271 270 273 267 265 266 269 272 277 280 282
Height
5819 5822 5827 5830 5833 5835 5838 5841 5844 5847 5849 5852 5855 5858 5860 5862 5863 5866 5869 5871 5872 5874 5876 5877 5880 5881 5880 5881 5882 5883 5884 5888 5887 5881 5886 5884 5884 5886 5885 5884 5881 5881 5881 5880 5878
5810 5813 5817 5821 5825 5828 5831 5834 5836 5839 5843 5846 5849 5852 5854 5857 5858 5860 5864 5866 5867 5868 5870 5871 5872 5874 5876 5876 5876 5877 5879 5882 5881 5877 5880 5881 5877 5880 5880 5877 5875 5877 5875 5874 5872
5801 5806 5809 5812 5816 5819 5822 5826 5829 5832 5836 5839 5842 5845 5847 5850 5851 5855 5858 5859 5860 5862 5863 5865 5867 5868 5869 5869 5870 5870 5873 5874 5876 5873 5871 5877 5875 5869 5871 5871 5870 5870 5868 5868 5868
5790 5796 5800 5803 5807 5810 5813 5817 5820 5824 5827 5830 5834 5838 5840 5844 5846 5849 5850 5853 5854 5855 5857 5858 5860 5861 5863 5863 5863 5862 5866 5865 5868 5868 5866 5867 5868 5868 5864 5865 5864 5859 5859 5856 5856
5780 5785 5789 5793 5797 5800 5804 5807 5811 5816 5819 5821 5825 5829 5832 5836 5839 5836 5842 5845 5845 5848 5849 5850 5852 5853 5854 5856 5855 5855 5856 5858 5860 5860 5860 5859 5859 5858 5861 5860 5856 5854 5848 5848 5848
5767 5773 5778 5781 5786 5791 5794 5797 5801 5805 5809 5812 5815 5819 5824 5829 5826 5827 5832 5835 5836 5838 5840 5840 5842 5843 5845 5846 5846 5846 5847 5850 5851 5852 5853 5850 5849 5846 5854 5849 5848 5845 5839 5838 5838
5753 5760 5766 5771 5776 5780 5784 5789 5791 5795 5797 5800 5804 5808 5813 5821 5816 5821 5823 5824 5826 5828 5831 5831 5832 5834 5835 5838 5836 5837 5838 5841 5844 5843 5841 5837 5839 5840 5838 5837 5836 5835 5830 5829 5829
5740 5746 5752 5757 5762 5767 5771 5776 5780 5783 5788 5791 5795 5797 5803 5804 5808 5811 5811 5816 5817 5818 5821 5820 5822 5824 5827 5827 5828 5826 5828 5832 5836 5830 5830 5823 5828 5829 5826 5822 5821 5821 5819 5817 5817
5730 5734 5740 5744 5748 5754 5759 5763 5766 5771 5774 5779 5784 5787 5792 5793 5795 5800 5801 5803 5805 5808 5808 5809 5811 5813 5814 5813 5815 5816 5818 5818 5819 5817 5815 5812 5815 5813 5811 5808 5808 5806 5805 5804 5804
5717 5724 5728 5732 5736 5741 5747 5750 5754 5758 5761 5766 5771 5777 5779 5780 5784 5788 5789 5791 5793 5794 5796 5798 5798 5800 5801 5801 5804 5803 5801 5803 5805 5808 5802 5802 5802 5801 5799 5797 5796 5796 5798 5796 5793
5705 5711 5716 5721 5726 5731 5736 5738 5744 5748 5753 5757 5760 5764 5766 5768 5773 5777 5780 5781 5782 5785 5784 5784 5788 5789 5789 5789 5790 5789 5788 5791 5792 5791 5791 5791 5793 5793 5790 5788 5786 5791 5789 5788 5788
5693 5698 5704 5709 5714 5718 5723 5728 5732 5737 5739 5744 5748 5754 5755 5754 5763 5767 5768 5771 5772 5775 5775 5777 5780 5778 5777 5778 5779 5779 5780 5782 5784 5783 5780 5780 5783 5783 5782 5781 5783 5780 5782 5780 5779
5680 5687 5692 5698 5703 5707 5713 5716 5719 5723 5722 5733 5737 5741 5746 5747 5752 5756 5757 5759 5762 5765 5766 5768 5771 5768 5769 5769 5769 5770 5769 5770 5771 5771 5771 5768 5778 5774 5775 5776 5772 5769 5770 5769 5768
5667 5676 5680 5687 5691 5698 5702 5705 5709 5713 5706 5721 5726 5734 5734 5735 5743 5745 5746 5750 5751 5755 5755 5758 5759 5758 5758 5759 5761 5763 5760 5759 5761 5762 5764 5764 5765 5768 5770 5769 5760 5761 5762 5761 5759
5655 5662 5669 5676 5682 5687 5693 5695 5699 5702 5688 5704 5710 5717 5722 5726 5734 5735 5735 5737 5742 5743 5745 5748 5748 5749 5750 5751 5752 5753 5753 5754 5754 5754 5755 5756 5754 5762 5762 5758 5748 5755 5756 5755 5751
5641 5652 5659 5659 5670 5679 5680 5683 5686 5686 5677 5689 5700 5702 5707 5714 5720 5725 5724 5728 5732 5733 5735 5738 5739 5739 5742 5742 5743 5744 5745 5746 5747 5747 5749 5752 5744 5753 5749 5747 5742 5749 5753 5749 5744
5626 5637 5644 5649 5661 5668 5673 5673 5669 5666 5676 5683 5691 5693 5697 5704 5709 5713 5713 5718 5722 5723 5726 5729 5730 5730 5733 5735 5736 5739 5738 5738 5739 5741 5747 5742 5739 5739 5740 5737 5735 5739 5741 5740 5736
5611 5620 5627 5636 5646 5656 5656 5653 5647 5660 5665 5673 5679 5684 5689 5693 5699 5702 5704 5707 5709 5713 5716 5720 5724 5724 5728 5729 5730 5730 5732 5732 5729 5729 5736 5736 5734 5728 5729 5729 5729 5730 5731 5730 5729
5598 5601 5609 5621 5631 5639 5639 5636 5636 5653 5656 5661 5666 5674 5679 5682 5690 5691 5694 5698 5700 5703 5708 5709 5711 5713 5716 5720 5717 5720 5716 5720 5717 5720 5722 5727 5723 5719 5716 5716 5717 5719 5721 5721 5720
5579 5586 5597 5599 5615 5618 5618 5619 5634 5643 5643 5642 5650 5663 5671 5673 5677 5680 5679 5687 5689 5692 5696 5696 5700 5698 5703 5705 5703 5704 5709 5707 5705 5709 5710 5714 5711 5711 5707 5705 5703 5703 5703 5705 5706
5562 5571 5580 5591 5598 5597 5596 5612 5621 5626 5629 5632 5638 5650 5657 5661 5663 5663 5667 5674 5676 5681 5683 5685 5688 5688 5691 5692 5693 5693 5696 5696 5697 5697 5697 5702 5703 5703 5692 5691 5690 5687 5690 5689 5688
5545 5558 5567 5575 5578 5577 5585 5603 5615 5613 5617 5617 5629 5637 5641 5648 5649 5651 5654 5656 5659 5666 5671 5675 5675 5677 5678 5677 5681 5680 5684 5685 5683 5685 5685 5687 5694 5689 5685 5680 5678 5677 5679 5677 5671
5535 5545 5552 5560 5559 5566 5575 5585 5597 5598 5604 5607 5616 5623 5628 5634 5637 5635 5637 5639 5645 5649 5657 5659 5661 5666 5671 5662 5664 5668 5671 5671 5669 5671 5672 5670 5680 5680 5678 5672 5670 5667 5668 5667 5662
5527 5529 5542 5545 5545 5557 5568 5574 5580 5588 5591 5595 5604 5610 5616 5620 5623 5621 5622 5627 5631 5637 5643 5647 5648 5651 5655 5652 5650 5655 5657 5661 5657 5657 5656 5657 5659 5674 5668 5661 5662 5659 5655 5655 5650
5508 5513 5526 5532 5543 5548 5556 5564 5570 5575 5574 5582 5590 5599 5604 5607 5612 5603 5608 5615 5620 5625 5628 5630 5634 5638 5640 5638 5639 5644 5651 5650 5644 5644 5640 5648 5644 5659 5654 5649 5651 5647 5643 5643 5643
5499 5506 5511 5520 5526 5534 5539 5549 5556 5558 5563 5568 5580 5589 5590 5592 5595 5595 5595 5602 5606 5612 5615 5618 5620 5624 5626 5625 5625 5630 5638 5633 5633 5634 5633 5631 5631 5640 5639 5634 5633 5633 5628 5628 5622
5482 5491 5502 5509 5517 5523 5529 5536 5545 5549 5550 5557 5567 5572 5571 5575 5580 5585 5587 5592 5595 5602 5604 5607 5609 5610 5611 5613 5611 5617 5628 5625 5620 5619 5618 5617 5623 5623 5620 5622 5621 5617 5614 5614 5610